GW6147 Weather Reports


time (UTC)temp
C
wind
direction
speed
KPH
gust
KPH
rain 1hr
cm
rain 24hr
cm
rain mn
cm
humidity
%
barometer
mb
20260502194025 18 0.0 0.0 0.00 0.00 0.00 32 1014.1
20260502193518 18 0.0 0.0 0.00 0.00 0.00 33 1014.2
20260502193011 17 0.0 0.0 0.00 0.00 0.00 32 1014.4
20260502192503 17 0.0 0.0 0.00 0.00 0.00 33 1014.4
20260502191955 17 0.0 0.0 0.00 0.00 0.00 29 1014.4
20260502191447 17 0.0 0.0 0.00 0.00 0.00 31 1014.6
20260502190939 17 0.0 0.0 0.00 0.00 0.00 32 1014.4
20260502190432 16 0.0 0.0 0.00 0.00 0.00 31 1014.6
20260502185925 16 0.0 0.0 0.00 0.00 0.00 28 1014.7
20260502185418 16 0.0 0.0 0.00 0.00 0.00 30 1014.8
20260502184911 16 0.0 0.0 0.00 0.00 0.00 33 1014.8
20260502184400 17 0.0 0.0 0.00 0.00 0.00 32 1014.7
20260502183852 16 0.0 0.0 0.00 0.00 0.00 32 1015.0
20260502183344 16 0.0 0.0 0.00 0.00 0.00 29 1014.8
20260502182837 16 0.0 0.0 0.00 0.00 0.00 31 1015.2
20260502182330 16 0.0 0.0 0.00 0.00 0.00 31 1015.5
20260502181823 16 0.0 0.0 0.00 0.00 0.00 32 1015.5
20260502181311 16 0.0 0.0 0.00 0.00 0.00 33 1015.5
20260502180803 16 0.0 0.0 0.00 0.00 0.00 34 1015.6
20260502180252 15 0.0 0.0 0.00 0.00 0.00 32 1015.9
20260502170114 14 0.0 0.0 0.00 0.00 0.00 31 1016.7
20260502164035 13 0.0 0.0 0.00 0.00 0.00 31 1017.2
20260502163527 13 0.0 0.0 0.00 0.00 0.00 30 1017.2
20260502163020 13 0.0 0.0 0.00 0.00 0.00 31 1017.1
20260502162508 12 0.0 0.0 0.00 0.00 0.00 32 1017.2
20260502162000 13 0.0 0.0 0.00 0.00 0.00 32 1017.5
20260502161451 13 0.0 0.0 0.00 0.00 0.00 35 1017.5
20260502160942 13 0.0 0.0 0.00 0.00 0.00 34 1017.4
20260502160434 12 0.0 0.0 0.00 0.00 0.00 35 1017.5
20260502152328 12 0.0 0.0 0.00 0.00 0.00 37 1017.8
20260502151822 11 0.0 0.0 0.00 0.00 0.00 36 1017.9
20260502151314 11 0.0 0.0 0.00 0.00 0.00 38 1017.9
20260502150807 11 0.0 0.0 0.00 0.00 0.00 39 1017.9
20260502150300 11 0.0 0.0 0.00 0.00 0.00 39 1018.2
20260502140124 9 0.0 0.0 0.00 0.00 0.00 57 1018.4
20260502130452 5 0.0 0.0 0.00 0.00 0.00 79 1018.7
20260502123409 2 0.0 0.0 0.00 0.00 0.00 85 1018.7
20260502122901 2 0.0 0.0 0.00 0.00 0.00 86 1018.6
20260502122353 1 0.0 0.0 0.00 0.00 0.00 87 1018.8
20260502121846 1 0.0 0.0 0.00 0.00 0.00 87 1018.7
20260502121339 1 0.0 0.0 0.00 0.00 0.00 88 1018.5
20260502120831 0 0.0 0.0 0.00 0.00 0.00 87 1018.6
20260502120323 0 0.0 0.0 0.00 0.00 0.00 87 1018.6
20260502115812 0 0.0 0.0 0.00 0.00 0.00 87 1018.7
20260502115142 0 0.0 0.0 0.00 0.00 0.00 87 1018.7
20260502114634 0 0.0 0.0 0.00 0.00 0.00 87 1018.8
20260502114126 0 0.0 0.0 0.00 0.00 0.00 87 1018.8
20260502113619 0 0.0 0.0 0.00 0.00 0.00 86 1018.8
20260502113112 0 0.0 0.0 0.00 0.00 0.00 86 1018.7
20260502112604 0 0.0 0.0 0.00 0.00 0.00 86 1018.5
20260502112058 0 0.0 0.0 0.00 0.00 0.00 86 1018.5
20260502111545 0 0.0 0.0 0.00 0.00 0.00 86 1018.4
20260502111037 0 0.0 0.0 0.00 0.00 0.00 86 1018.3
20260502110530 0 0.0 0.0 0.00 0.00 0.00 86 1018.2
20260502110021 0 0.0 0.0 0.00 0.00 0.00 86 1018.5
20260502105515 0 0.0 0.0 0.00 0.00 0.00 86 1018.4
20260502105007 0 0.0 0.0 0.00 0.00 0.00 85 1018.4
20260502104500 0 0.0 0.0 0.00 0.00 0.00 85 1018.3
20260502103953 0 0.0 0.0 0.00 0.00 0.00 85 1018.3
20260502103445 0 0.0 0.0 0.00 0.00 0.00 85 1018.6
20260502102938 0 0.0 0.0 0.00 0.00 0.00 86 1018.3
20260502102432 0 0.0 0.0 0.00 0.00 0.00 86 1018.3
20260502101924 0 0.0 0.0 0.00 0.00 0.00 86 1018.3
20260502101417 0 0.0 0.0 0.00 0.00 0.00 87 1018.2
20260502100911 0 0.0 0.0 0.00 0.00 0.00 85 1018.1
20260502100404 0 0.0 0.0 0.00 0.00 0.00 85 1018.0
20260502091247 0 0.0 0.0 0.00 0.00 0.00 83 1018.3
20260502090741 0 0.0 0.0 0.00 0.00 0.00 82 1018.1
20260502090232 0 0.0 0.0 0.00 0.00 0.00 82 1018.2
20260502080106 0 0.0 0.0 0.00 0.00 0.00 80 1018.4
20260502071457 1 0.0 0.0 0.00 0.00 0.00 77 1018.6
20260502070950 1 0.0 0.0 0.00 0.00 0.00 77 1018.8
20260502070443 1 0.0 0.0 0.00 0.00 0.00 76 1018.4
20260502065936 1 0.0 0.0 0.00 0.00 0.00 76 1018.6
20260502065428 1 0.0 0.0 0.00 0.00 0.00 76 1018.3
20260502064922 1 0.0 0.0 0.00 0.00 0.00 76 1018.5
20260502064415 1 0.0 0.0 0.00 0.00 0.00 76 1018.4
20260502063909 1 0.0 0.0 0.00 0.00 0.00 76 1018.5
20260502063402 1 0.0 0.0 0.00 0.00 0.00 75 1018.9
20260502062855 1 0.0 0.0 0.00 0.00 0.00 75 1018.4
20260502062347 1 0.0 0.0 0.00 0.00 0.00 74 1018.5
20260502061840 1 0.0 0.0 0.00 0.00 0.00 74 1018.8
20260502061333 1 0.0 0.0 0.00 0.00 0.00 73 1018.6
20260502060827 1 0.0 0.0 0.00 0.00 0.00 73 1018.7
20260502060320 1 0.0 0.0 0.00 0.00 0.00 74 1018.8
20260502055809 1 0.0 0.0 0.00 0.00 0.00 72 1019.0
20260502055305 1 0.0 0.0 0.00 0.00 0.00 72 1018.8
20260502054755 1 0.0 0.0 0.00 0.00 0.00 71 1018.6
20260502054247 1 0.0 0.0 0.00 0.00 0.00 71 1018.7
20260502053740 2 0.0 0.0 0.00 0.00 0.00 70 1018.7
20260502053233 2 0.0 0.0 0.00 0.00 0.00 70 1018.7
20260502052726 2 0.0 0.0 0.00 0.00 0.00 69 1018.7
20260502052214 2 0.0 0.0 0.00 0.00 0.00 69 1018.6
20260502051707 2 0.0 0.0 0.00 0.00 0.00 68 1018.5
20260502051200 2 0.0 0.0 0.00 0.00 0.00 68 1018.6
20260502050652 2 0.0 0.0 0.00 0.00 0.00 67 1018.8
20260502050145 2 0.0 0.0 0.00 0.00 0.00 67 1018.5
20260502045638 2 0.0 0.0 0.00 0.00 0.00 66 1018.3
20260502045130 2 0.0 0.0 0.00 0.00 0.00 66 1018.8
20260502044624 2 0.0 0.0 0.00 0.00 0.00 65 1018.6
20260502044116 2 0.0 0.0 0.00 0.00 0.00 65 1018.4
20260502043609 2 0.0 0.0 0.00 0.00 0.00 64 1018.4
20260502043102 3 0.0 0.0 0.00 0.00 0.00 63 1018.5
20260502042550 3 0.0 0.0 0.00 0.00 0.00 63 1018.3
20260502042042 3 0.0 0.0 0.00 0.00 0.00 62 1018.3
20260502041535 3 0.0 0.0 0.00 0.00 0.00 62 1018.3
20260502041028 3 0.0 0.0 0.00 0.00 0.00 62 1018.6
20260502040520 3 0.0 0.0 0.00 0.00 0.00 61 1018.5
20260502040014 3 0.0 0.0 0.00 0.00 0.00 60 1018.2
20260502035506 3 0.0 0.0 0.00 0.00 0.00 60 1018.5
20260502034959 3 0.0 0.0 0.00 0.00 0.00 59 1018.4
20260502034452 3 0.0 0.0 0.00 0.00 0.00 59 1018.6
20260502033946 3 0.0 0.0 0.00 0.00 0.00 59 1018.5
20260502033438 3 0.0 0.0 0.00 0.00 0.00 59 1018.6
20260502032931 4 0.0 0.0 0.00 0.00 0.00 58 1018.5
20260502032424 4 0.0 0.0 0.00 0.00 0.00 57 1018.7
20260502031916 4 0.0 0.0 0.00 0.00 0.00 57 1018.6
20260502031405 5 0.0 0.0 0.00 0.00 0.00 57 1018.7
20260502030858 5 0.0 0.0 0.00 0.00 0.00 56 1018.7
20260502030346 5 0.0 0.0 0.00 0.00 0.00 55 1018.8
20260502025837 5 0.0 0.0 0.00 0.00 0.00 54 1018.8
20260502025330 5 0.0 0.0 0.00 0.00 0.00 53 1018.5
20260502024821 5 0.0 0.0 0.00 0.00 0.00 53 1018.8
20260502024314 5 0.0 0.0 0.00 0.00 0.00 52 1018.3
20260502023807 6 0.0 0.0 0.00 0.00 0.00 52 1018.1
20260502023300 6 0.0 0.0 0.00 0.00 0.00 51 1018.3
20260502022753 6 0.0 0.0 0.00 0.00 0.00 51 1018.5
20260502022246 6 0.0 0.0 0.00 0.00 0.00 50 1018.4
20260502021739 6 0.0 0.0 0.00 0.00 0.00 49 1018.3
20260502021228 7 0.0 0.0 0.00 0.00 0.00 48 1018.2
20260502020716 7 0.0 0.0 0.00 0.00 0.00 49 1018.2
20260502020208 7 0.0 0.0 0.00 0.00 0.00 48 1018.3
20260502015701 7 0.0 0.0 0.00 0.00 0.00 48 1018.3
20260502015153 7 0.0 0.0 0.00 0.00 0.00 47 1018.0
20260502014644 7 0.0 0.0 0.00 0.00 0.00 47 1018.3
20260502014137 8 0.0 0.0 0.00 0.00 0.00 48 1017.8
20260502013630 8 0.0 0.0 0.00 0.00 0.00 44 1017.8
20260502013109 8 0.0 0.0 0.00 0.00 0.00 42 1017.7
20260502012602 8 0.0 0.0 0.00 0.00 0.00 42 1017.8
20260502012055 8 0.0 0.0 0.00 0.00 0.00 41 1017.4
20260502011543 9 0.0 0.0 0.00 0.00 0.00 41 1017.7
20260502010851 9 0.0 0.0 0.00 0.00 0.00 41 1017.7
20260502010339 9 0.0 0.0 0.00 0.00 0.00 40 1017.8
20260502005832 9 0.0 0.0 0.00 0.00 0.00 40 1017.9
20260502005324 9 0.0 0.0 0.00 0.00 0.00 39 1017.6
20260502004817 10 0.0 0.0 0.00 0.00 0.00 39 1017.6
20260502004310 10 0.0 0.0 0.00 0.00 0.00 38 1017.8
20260502003758 10 0.0 0.0 0.00 0.00 0.00 38 1017.5
20260502003251 10 0.0 0.0 0.00 0.00 0.00 38 1017.4
20260502002743 10 0.0 0.0 0.00 0.00 0.00 37 1017.6
20260502002236 10 0.0 0.0 0.00 0.00 0.00 37 1017.8
20260502001723 10 0.0 0.0 0.00 0.00 0.00 38 1017.4
20260502001106 10 0.0 0.0 0.00 0.00 0.00 37 1017.4
20260502000555 10 0.0 0.0 0.00 0.00 0.00 38 1017.6
20260502000043 10 0.0 0.0 0.00 0.00 0.00 37 1017.6
20260501235536 10 0.0 0.0 0.00 0.00 0.00 37 1017.5
20260501235028 10 0.0 0.0 0.00 0.00 0.00 36 1017.5
20260501234521 10 0.0 0.0 0.00 0.00 0.00 35 1017.4
20260501234010 11 0.0 0.0 0.00 0.00 0.00 34 1017.4
20260501233503 11 0.0 0.0 0.00 0.00 0.00 34 1017.4
20260501232956 11 0.0 0.0 0.00 0.00 0.00 35 1017.4
20260501232449 11 0.0 0.0 0.00 0.00 0.00 34 1017.7
20260501231942 11 0.0 0.0 0.00 0.00 0.00 33 1017.5
20260501231433 10 0.0 0.0 0.00 0.00 0.00 33 1017.6
20260501230922 10 0.0 0.0 0.00 0.00 0.00 33 1017.5
20260501230402 11 0.0 0.0 0.00 0.00 0.00 32 1017.5
20260501225834 11 0.0 0.0 0.00 0.00 0.00 33 1017.4
20260501225327 11 0.0 0.0 0.00 0.00 0.00 33 1017.6
20260501224819 11 0.0 0.0 0.00 0.00 0.00 31 1017.7
20260501224312 11 0.0 0.0 0.00 0.00 0.00 30 1017.5
20260501223805 12 0.0 0.0 0.00 0.00 0.00 33 1017.7
20260501223257 12 0.0 0.0 0.00 0.00 0.00 31 1017.6
20260501222750 12 0.0 0.0 0.00 0.00 0.00 32 1017.6
20260501222242 11 0.0 0.0 0.00 0.00 0.00 32 1017.6
20260501221730 12 0.0 0.0 0.00 0.00 0.00 32 1017.5
20260501221222 12 0.0 0.0 0.00 0.00 0.00 33 1017.6
20260501220715 11 0.0 0.0 0.00 0.00 0.00 32 1017.4
20260501220208 11 0.0 0.0 0.00 0.00 0.00 31 1017.6
20260501215700 12 0.0 0.0 0.00 0.00 0.00 35 1017.6
20260501215151 11 0.0 0.0 0.00 0.00 0.00 33 1017.6
20260501214641 10 0.0 0.0 0.00 0.00 0.00 32 1017.4
20260501214134 10 0.0 0.0 0.00 0.00 0.00 32 1017.5
20260501213627 11 0.0 0.0 0.00 0.00 0.00 30 1017.7
20260501213120 11 0.0 0.0 0.00 0.00 0.00 31 1017.1
20260501212609 12 0.0 0.0 0.00 0.00 0.00 30 1017.3
20260501212102 11 0.0 0.0 0.00 0.00 0.00 32 1017.6
20260501211556 11 0.0 0.0 0.00 0.00 0.00 30 1017.7
20260501211049 11 0.0 0.0 0.00 0.00 0.00 33 1017.6
20260501210541 10 0.0 0.0 0.00 0.00 0.00 32 1017.6
20260501210034 10 0.0 0.0 0.00 0.00 0.00 33 1017.7
20260501205527 10 0.0 0.0 0.00 0.00 0.00 31 1017.8
20260501205017 11 0.0 0.0 0.00 0.00 0.00 31 1017.8
20260501204510 11 0.0 0.0 0.00 0.00 0.00 31 1017.5
20260501204003 12 0.0 0.0 0.00 0.00 0.00 31 1017.5
20260501203455 11 0.0 0.0 0.00 0.00 0.00 31 1017.7
20260501202949 11 0.0 0.0 0.00 0.00 0.00 32 1017.5
20260501202442 11 0.0 0.0 0.00 0.00 0.00 32 1017.5
20260501201932 11 0.0 0.0 0.00 0.00 0.00 33 1017.9
20260501201422 11 0.0 0.0 0.00 0.00 0.00 35 1017.9
20260501200911 11 0.0 0.0 0.00 0.00 0.00 32 1017.7
20260501200401 10 0.0 0.0 0.00 0.00 0.00 34 1017.8
20260501195854 11 0.0 0.0 0.00 0.00 0.00 33 1017.8
20260501195343 11 0.0 0.0 0.00 0.00 0.00 35 1018.0
20260501194834 11 0.0 0.0 0.00 0.00 0.00 33 1017.6
20260501194327 12 0.0 0.0 0.00 0.00 0.00 34 1017.8